Beaver Lake Weather Center

Moon Phase Calendar



Beaver Lake Water Level
Online Cameras

 


      

Current Conditions in Prairie Creek
4/19/2021 9:29:48 AM

53°F
Feels Like 50
Clear
Humidity
50%
Pressure
30.06"
Wind
8 mph (SW)
Dew Point
35°F
UV Index
1/10 (Low)
Visibility
6 mi

Hourly Forecast

Date & Time Mon, Apr 19
9:00 AM
Mon, Apr 19
10:00 AM
Mon, Apr 19
11:00 AM
Mon, Apr 19
12:00 PM
Mon, Apr 19
1:00 PM
Mon, Apr 19
2:00 PM
Mon, Apr 19
3:00 PM
Mon, Apr 19
4:00 PM
Mon, Apr 19
5:00 PM
Mon, Apr 19
6:00 PM
Mon, Apr 19
7:00 PM
Mon, Apr 19
8:00 PM
Mon, Apr 19
9:00 PM
Mon, Apr 19
10:00 PM
Mon, Apr 19
11:00 PM
Tue, Apr 20
12:00 AM
Tue, Apr 20
1:00 AM
Tue, Apr 20
2:00 AM
Tue, Apr 20
3:00 AM
Tue, Apr 20
4:00 AM
Tue, Apr 20
5:00 AM
Tue, Apr 20
6:00 AM
Tue, Apr 20
7:00 AM
Tue, Apr 20
8:00 AM
Tue, Apr 20
9:00 AM
Tue, Apr 20
10:00 AM
Tue, Apr 20
11:00 AM
Tue, Apr 20
12:00 PM
Tue, Apr 20
1:00 PM
Tue, Apr 20
2:00 PM
Tue, Apr 20
3:00 PM
Tue, Apr 20
4:00 PM
Tue, Apr 20
5:00 PM
Tue, Apr 20
6:00 PM
Tue, Apr 20
7:00 PM
Tue, Apr 20
8:00 PM
Tue, Apr 20
9:00 PM
Tue, Apr 20
10:00 PM
Tue, Apr 20
11:00 PM
Wed, Apr 21
12:00 AM
Wed, Apr 21
1:00 AM
Wed, Apr 21
2:00 AM
Wed, Apr 21
3:00 AM
Wed, Apr 21
4:00 AM
Wed, Apr 21
5:00 AM
Wed, Apr 21
6:00 AM
Wed, Apr 21
7:00 AM
Wed, Apr 21
8:00 AM
Condition
Clear

Clear

Clear

Clear

Clear

Clear

Clear

Clear

Clear

Clear

Clear

Clear

Clear

Clear

Clear

Clear

Clouds

Clouds

Clouds

Clouds

Clouds

Clouds

Clouds

Clouds

Clouds

Clouds

Rain

Snow

Snow

Snow

Snow

Snow

Clouds

Clouds

Clouds

Clear

Clear

Clouds

Clouds

Clouds

Clouds

Clouds

Clouds

Clouds

Clouds

Clouds

Clouds

Clouds
Temperature 53°F53°F55°F58°F61°F65°F65°F65°F65°F64°F59°F52°F51°F48°F45°F44°F43°F42°F41°F40°F39°F39°F40°F42°F44°F46°F42°F34°F33°F34°F35°F36°F37°F37°F36°F32°F26°F25°F24°F23°F22°F21°F21°F21°F21°F21°F22°F32°F
Feels Like 50°F51°F53°F56°F59°F63°F64°F63°F63°F62°F58°F51°F49°F46°F41°F39°F39°F38°F37°F36°F35°F35°F35°F38°F41°F43°F34°F24°F25°F27°F27°F28°F30°F30°F29°F27°F26°F25°F24°F23°F22°F21°F21°F21°F21°F21°F22°F32°F
Cloudiness 1%1%1%0%0%0%3%3%4%5%5%3%3%5%10%10%12%29%27%29%31%43%49%92%96%97%97%98%98%100%100%100%100%99%93%9%9%15%19%21%22%39%45%49%54%60%59%100%
Visibility 6 mi6 mi6 mi6 mi6 mi6 mi6 mi6 mi6 mi6 mi6 mi6 mi6 mi6 mi6 mi6 mi6 mi6 mi6 mi4 mi3 mi2 mi2 mi6 mi6 mi6 mi6 mi1 mi0 mi0 mi0 mi6 mi6 mi6 mi6 mi6 mi6 mi6 mi6 mi6 mi6 mi6 mi6 mi6 mi6 mi6 mi6 mi6 mi
Precipitation 0%0%0%0%0%0%0%0%0%0%0%0%0%0%0%0%0%0%0%0%0%0%0%3%6%21%40%56%79%97%100%100%80%80%79%0%0%0%0%0%0%0%0%0%0%0%0%0%
Humidity 50%51%49%46%43%41%41%41%43%50%64%69%70%82%91%97%98%97%98%98%98%98%97%93%87%82%86%94%98%99%98%96%94%94%93%96%98%98%98%98%98%98%98%98%98%98%98%92%
Dew Point 35°F36°F37°F38°F39°F40°F41°F41°F41°F45°F47°F42°F41°F42°F42°F42°F42°F41°F40°F39°F38°F38°F39°F39°F40°F40°F37°F32°F32°F33°F34°F35°F35°F35°F34°F30°F25°F23°F23°F22°F21°F20°F20°F19°F20°F19°F20°F30°F
Pressure 30.06"30.06"30.06"30.03"30"30"29.97"29.94"29.94"29.94"29.94"29.94"29.97"30"30.03"30"30"30"30"30"30.03"30"30"30.03"30.03"30.03"30.09"30.15"30.15"30.18"30.18"30.18"30.18"30.21"30.24"30.27"30.3"30.33"30.33"30.33"30.36"30.36"30.36"30.36"30.36"30.36"30.36"30.36"
Wind Speed 6.8 mph7.3 mph8.1 mph8.8 mph8.5 mph8.2 mph8.6 mph8.2 mph7.5 mph5.4 mph2.5 mph1.2 mph0.8 mph4.3 mph7.1 mph7.7 mph6.6 mph5.1 mph4.6 mph5.4 mph5.7 mph6.1 mph6.4 mph6.2 mph5.9 mph5.6 mph13.7 mph15 mph10.3 mph8.4 mph10.8 mph11.5 mph11.5 mph10.1 mph9 mph5.1 mph2.3 mph1.9 mph1.4 mph1.2 mph2 mph2.2 mph1.8 mph1.4 mph2 mph0.8 mph1 mph1.7 mph
Wind
Direction
246°
WSW
253°
WSW
253°
WSW
255°
WSW
254°
WSW
252°
WSW
252°
WSW
251°
WSW
253°
WSW
248°
WSW
236°
SW
206°
SSW
147°
SSE
42°
NE
48°
NE
75°
ENE
78°
ENE
53°
NE
46°
NE
60°
ENE
53°
NE
63°
ENE
63°
ENE
49°
NE
33°
NNE

N
343°
NNW

N
21°
NNE

N

N

N

N
359°
N
355°
N
354°
N
326°
NW
319°
NW
270°
W
230°
SW
238°
WSW
259°
W
233°
SW
202°
SSW
237°
WSW
249°
WSW
251°
WSW
263°
W

Daily Forecast

Date High Low Precip. Humidity
Today
Apr 19

Clear
65 °F
39 °F
0%
43%
Tuesday
Apr 20

Snow
46 °F
24 °F
100%
98%
Wednesday
Apr 21

Rain
51 °F
21 °F
26%
73%
Thursday
Apr 22

Rain
56 °F
36 °F
27%
47%
Friday
Apr 23

Rain
52 °F
43 °F
91%
86%
Saturday
Apr 24

Rain
54 °F
48 °F
100%
97%
Sunday
Apr 25

Clouds
71 °F
47 °F
0%
60%
Monday
Apr 26

Clear
79 °F
53 °F
0%
55%
Tuesday
Apr 27

Clouds
77 °F
66 °F
11%
79%
Wednesday
Apr 28

Rain
80 °F
68 °F
74%
67%
Thursday
Apr 29

Rain
75 °F
57 °F
100%
77%
Friday
Apr 30

Clear
73 °F
51 °F
0%
50%
Saturday
May 1

Clouds
70 °F
51 °F
0%
51%
Sunday
May 2

Rain
70 °F
55 °F
84%
79%
Monday
May 3

Rain
71 °F
61 °F
93%
84%
Tuesday
May 4

Rain
77 °F
59 °F
93%
57%

Temperature 8-14 Day Outlook



Precipitation 8-14 Day Outlook




Quick Links
Beaver Lake News
Beaver Lake Photos
Beaver Lake Videos




About Us
Contact Us
Site Map
Search Site
Advertise With Us
   
Beaver.USLakes.info
THE BEAVER LAKE WEBSITE

Copyright 2021, Lakes Online
Privacy    |    Legal